Location: Alsip
(41.6689°N, 87.7387°W)
Time: 14:11:37
(UTC+00:00)

Cosmos 1408 Rocket - Pass Details

Date: 14 July 2020
Orbit: 602 x 630 km, 82.6° (Epoch: 04 August)

Event Time Altitude Azimuth Distance (km) Brightness Sun altitude
Exits shadow 04:59:13 52° 273° (W) 778 4.0 -25.3°
Maximum altitude 04:59:22 52° 281° (W) 776 4.1 -25.3°
Drops below altitude 10° 05:03:43 10° 358° (N) 2,007 7.2 -25.5°
Sets 05:06:01 0° 3° (N) 2,922 8.2 -25.6°
